Regional Weather Roundup
Issued by NWS

Home | Current Version | Previous Version | Text Only | Print | Product List | Glossary On
Versions: 1 2 3 4 5 6 7 8 9 10 11 12 13 14 15 16 17 18 19 20 21 22 23 24 25 26 27 28 29 30 31 32 33 34 35 36 37 38 39 40 41 42 43 44 45 46 47 48 49 50
000
ASUS43 KFSD 041310
RWRSD

WEATHER ROUNDUP FOR SOUTH DAKOTA
NATIONAL WEATHER SERVICE SIOUX FALLS SD
800 AM CDT TUE AUG 04 2015

NOTE: "FAIR" INDICATES FEW OR NO CLOUDS BELOW 12,000 FEET WITH NO
SIGNIFICANT WEATHER AND/OR OBSTRUCTIONS TO VISIBILITY.


SDZ001>005-009-010-012>017-041400-
NORTHWEST AND NORTH CENTRAL SOUTH DAKOTA

CITY           SKY/WX    TMP DP  RH WIND       PRES   REMARKS
BUFFALO          N/A     61  54  77 NE6       29.90S
FAITH            N/A     64  55  72 SE6       29.95R
MOBRIDGE       PTSUNNY   63  57  81 E13       29.95S
$$

SDZ012>016-024>037-041>051-057-063-072>074-041400-
SOUTHWEST AND SOUTH CENTRAL SOUTH DAKOTA

CITY           SKY/WX    TMP DP  RH WIND       PRES   REMARKS
RAPID CTY ARPT PTSUNNY   64  59  83 SW6       29.96F
PIERRE         CLOUDY    65  58  78 E12       29.90F
CUSTER         MOSUNNY   59  54  83 NE12      30.07R
ELLSWORTH AFB  PTSUNNY   66  60  82 SW7       29.95S
PHILIP         CLOUDY    68  59  73 S18G29    29.89F
PINE RIDGE     PTSUNNY   67  63  87 E10G22    29.97R
WINNER         LGT RAIN  65  61  87 S12       29.97F
$$

SDZ004>011-016>023-039-040-041400-
NORTHEAST SOUTH DAKOTA

CITY           SKY/WX    TMP DP  RH WIND       PRES   REMARKS
ABERDEEN       PTSUNNY   60  55  83 NE3       30.02S
WATERTOWN      PTSUNNY   60  52  74 CALM      30.04S
BROOKINGS      CLOUDY    57  52  82 CALM      30.06S
SISSETON         N/A     63  54  72 SW3       30.01R
$$

SDZ017-020-022-023-036>040-048>070-041400-
SOUTHEAST SOUTH DAKOTA

CITY           SKY/WX    TMP DP  RH WIND       PRES   REMARKS
SIOUX FALLS    CLOUDY    63  58  83 NE5       30.03S
HURON          CLOUDY    62  56  80 SE7       30.00S
CHAMBERLAIN    CLOUDY    64  63  97 SE3       29.99R
MITCHELL       CLOUDY    63  61  93 E3        30.01F
YANKTON        CLOUDY    64  63  94 CALM      30.02R
$$

ABBREVIATIONS USED IN REMARKS
   TC - TEMPERATURE IN CELSIUS
  WCI - WIND CHILL INDEX
   HX - HEAT INDEX
  VSB - VISIBILITY




USA.gov is the U.S. government's official web portal to all federal, state and local government web resources and services.